Weather History for Ainsworth, NE

Change the Weather History Date:

Thursday, September 20, 2012

  Actual Average Record
Temperature  
Mean Temperature 58 °F -  
Max Temperature 75 °F 70 °F 93 °F (2005)
Min Temperature 42 °F 46 °F 37 °F (2006)
Degree Days  
Heating Degree Days 7    
Growing Degree Days 8 (Base 50)    
Moisture  
Dew Point 32 °F    
Average Humidity 47    
Maximum Humidity 67    
Minimum Humidity 19    
Precipitation  
Precipitation 0.00 in - - ()
Sea Level Pressure  
Sea Level Pressure 30.03 in    
Wind  
Wind Speed 2 mph (WSW)    
Max Wind Speed 6 mph    
Max Gust Speed -    
Visibility 10 miles    
Events      
Averages and records for this station are not official NWS values.
T = Trace of Precipitation, MM = Missing Value Source: NWS Daily Summary

Daily Weather History Graph

Daily Weather History Graph

Search for Another Location

Airport:

Trip Planner

Search our weather history database for the weather conditions in past years. The results will help you decide how hot, cold, wet, or windy it might be!

Date:

Astronomy

Sep. 20, 2012 Rise Set
Actual Time 7:25 AM CDT 7:39 PM CDT
Civil Twilight 6:57 AM CDT 8:07 PM CDT
Nautical Twilight 6:24 AM CDT 8:40 PM CDT
Astronomical Twilight 5:50 AM CDT 9:14 PM CDT
Moon 12:53 PM CDT (9/20) 10:35 PM CDT (9/20)
Length of Visible Light 13h 10m
Length of Day
12h 14m
Waxing Crescent, 27% of the Moon is Illuminated
Sep 20
Waxing Crescent
Sep 22
First Quarter
Sep 29
Full
Oct 8
Last Quarter
Oct 15
New

Hourly Weather History & Observations

Time (CDT) Temp. Windchill Dew Point Humidity Pressure Visibility Wind Dir Wind Speed Gust Speed Precip Events Conditions
12:15 AM 46.9 °F - 29.1 °F 50% 30.08 in 10.0 mi West 5.8 mph - N/A   Clear
12:35 AM 47.5 °F - 28.9 °F 49% 30.08 in 10.0 mi West 4.6 mph - N/A   Clear
12:55 AM 43.0 °F 41.3 °F 30.7 °F 62% 30.08 in 10.0 mi WSW 3.5 mph - N/A   Clear
1:15 AM 44.2 °F - 30.0 °F 57% 30.08 in 10.0 mi Calm Calm - N/A   Clear
1:35 AM 45.5 °F 44.2 °F 30.0 °F 55% 30.08 in 10.0 mi WSW 3.5 mph - N/A   Clear
1:55 AM 44.2 °F - 30.2 °F 58% 30.08 in 10.0 mi Calm Calm - N/A   Clear
2:15 AM 42.1 °F 39.2 °F 30.4 °F 63% 30.09 in 10.0 mi SW 4.6 mph - N/A   Clear
2:35 AM 42.6 °F 40.9 °F 31.1 °F 64% 30.09 in 10.0 mi SW 3.5 mph - N/A   Clear
2:55 AM 43.0 °F - 30.7 °F 62% 30.09 in 10.0 mi Calm Calm - N/A   Clear
3:15 AM 42.8 °F 39.3 °F 30.4 °F 62% 30.09 in 10.0 mi WSW 5.8 mph - N/A   Clear
3:35 AM 43.9 °F 40.5 °F 30.0 °F 58% 30.08 in 10.0 mi West 5.8 mph - N/A   Clear
3:55 AM 43.7 °F 42.1 °F 30.0 °F 59% 30.08 in 10.0 mi West 3.5 mph - N/A   Clear
4:15 AM 43.2 °F - 30.0 °F 60% 30.08 in 10.0 mi Calm Calm - N/A   Clear
4:35 AM 43.0 °F 41.3 °F 30.4 °F 61% 30.08 in 10.0 mi West 3.5 mph - N/A   Clear
4:55 AM 44.6 °F 42.2 °F 30.2 °F 57% 30.08 in 10.0 mi West 4.6 mph - N/A   Clear
5:15 AM 43.0 °F - 31.1 °F 63% 30.09 in 10.0 mi Calm Calm - N/A   Clear
5:35 AM 42.6 °F - 31.1 °F 64% 30.08 in 10.0 mi Calm Calm - N/A   Clear
5:55 AM 43.3 °F - 31.5 °F 63% 30.08 in 10.0 mi Calm Calm - N/A   Clear
6:15 AM 43.5 °F 41.9 °F 32.0 °F 64% 30.08 in 10.0 mi WSW 3.5 mph - N/A   Clear
6:35 AM 43.5 °F - 32.0 °F 64% 30.09 in 10.0 mi Calm Calm - N/A   Clear
6:55 AM 42.4 °F - 32.0 °F 67% 30.09 in 10.0 mi Calm Calm - N/A   Clear
7:15 AM 42.8 °F 41.1 °F 32.0 °F 66% 30.09 in 10.0 mi WSW 3.5 mph - N/A   Clear
7:35 AM 42.4 °F - 32.2 °F 67% 30.09 in 10.0 mi Calm Calm - N/A   Clear
7:55 AM 42.8 °F - 32.0 °F 66% 30.09 in 10.0 mi Calm Calm - N/A   Clear
8:15 AM 44.2 °F - 34.0 °F 67% 30.08 in 10.0 mi Calm Calm - N/A   Clear
8:35 AM 46.9 °F - 34.0 °F 61% 30.09 in 10.0 mi Calm Calm - N/A   Clear
8:55 AM 48.9 °F - 34.5 °F 58% 30.09 in 10.0 mi Calm Calm - N/A   Clear
9:15 AM 51.3 °F - 34.7 °F 53% 30.09 in 10.0 mi Calm Calm - N/A   Clear
9:35 AM 53.8 °F - 33.6 °F 46% 30.10 in 10.0 mi Calm Calm - N/A   Clear
9:55 AM 55.4 °F - 33.4 °F 43% 30.10 in 10.0 mi Calm Calm - N/A   Clear
10:15 AM 56.7 °F - 32.4 °F 40% 30.10 in 10.0 mi Calm Calm - N/A   Clear
10:35 AM 57.2 °F - 33.8 °F 41% 30.09 in 10.0 mi Calm Calm - N/A   Clear
2:55 PM 73.2 °F - 28.2 °F 19% 30.01 in 10.0 mi SE 4.6 mph - N/A   Scattered Clouds
3:15 PM 73.2 °F - 28.4 °F 19% 30.00 in 10.0 mi East 3.5 mph - N/A   Scattered Clouds
3:35 PM 73.4 °F - 28.6 °F 19% 29.99 in 10.0 mi Calm Calm - N/A   Mostly Cloudy
3:55 PM 73.9 °F - 28.6 °F 19% 29.98 in 10.0 mi Calm Calm - N/A   Mostly Cloudy
4:15 PM 74.5 °F - 28.9 °F 19% 29.97 in 10.0 mi NE 5.8 mph - N/A   Scattered Clouds
4:35 PM 73.8 °F - 28.4 °F 19% 29.97 in 10.0 mi NNW 4.6 mph - N/A   Clear
4:55 PM 73.6 °F - 28.8 °F 19% 29.97 in 10.0 mi Calm Calm - N/A   Clear
5:15 PM 73.6 °F - 29.1 °F 19% 29.96 in 10.0 mi Calm Calm - N/A   Clear
5:35 PM 73.2 °F - 29.3 °F 20% 29.96 in 10.0 mi NNE 4.6 mph - N/A   Clear
5:55 PM 72.3 °F - 30.2 °F 21% 29.95 in 10.0 mi NE 5.8 mph - N/A   Clear
6:15 PM 71.1 °F - 32.0 °F 24% 29.95 in 10.0 mi NNE 3.5 mph - N/A   Clear
6:35 PM 70.9 °F - 34.0 °F 26% 29.95 in 10.0 mi Calm Calm - N/A   Clear
6:55 PM 70.0 °F - 33.6 °F 26% 29.96 in 10.0 mi Calm Calm - N/A   Clear
7:15 PM 68.5 °F - 33.1 °F 27% 29.95 in 10.0 mi East 4.6 mph - N/A   Clear
7:35 PM 63.7 °F - 33.8 °F 33% 29.95 in 10.0 mi SE 4.6 mph - N/A   Clear
7:55 PM 61.2 °F - 37.0 °F 41% 29.95 in 10.0 mi Calm Calm - N/A   Clear
8:15 PM 59.4 °F - 35.6 °F 41% 29.95 in 10.0 mi ESE 3.5 mph - N/A   Clear
8:35 PM 57.7 °F - 36.3 °F 45% 29.96 in 10.0 mi Calm Calm - N/A   Clear
8:55 PM 56.8 °F - 36.3 °F 46% 29.96 in 10.0 mi Calm Calm - N/A   Clear
9:15 PM 56.5 °F - 36.7 °F 48% 29.97 in 10.0 mi Calm Calm - N/A   Clear
9:35 PM 53.8 °F - 36.5 °F 52% 29.97 in 7.0 mi Calm Calm - N/A   Clear
9:55 PM 55.9 °F - 35.2 °F 46% 29.97 in 10.0 mi Calm Calm - N/A   Clear
10:15 PM 57.6 °F - 34.9 °F 43% 29.97 in 10.0 mi Calm Calm - N/A   Clear
10:35 PM 54.0 °F - 35.1 °F 49% 29.97 in 10.0 mi Calm Calm - N/A   Clear
10:55 PM 53.1 °F - 35.4 °F 51% 29.97 in 10.0 mi Calm Calm - N/A   Clear
11:15 PM 53.1 °F - 36.5 °F 53% 29.97 in 10.0 mi Calm Calm - N/A   Clear
11:35 PM 54.1 °F - 35.8 °F 50% 29.97 in 10.0 mi WSW 3.5 mph - N/A   Clear
11:55 PM 53.1 °F - 36.1 °F 53% 29.97 in 10.0 mi SW 5.8 mph - N/A   Clear